User: anonymous   Login
Location: Juniper Campground
(35.7953°N, 106.2814°W)
Time: 10:43:34
(UTC-06:00)
Language:

Envisat - Orbit

View from above orbital plane
View from above orbital plane
View from above satellite
View from above satellite

Ground track
Ground track

The orbit data is extracted from the following two-line orbital elements,

1 27386U 02009A   18265.60494181 +.00000007 +00000-0 +16037-4 0  9990
2 27386 098.1775 295.0368 0001230 089.0458 070.8072 14.37930080867457
Epoch (UTC): 22 September 2018 14:31:06
Eccentricity: 0.0001230
inclination: 98.1775°
perigee height: 764 km
apogee height: 766 km
right ascension of ascending node: 295.0368°
argument of perigee: 89.0458°
revolutions per day: 14.37930080
mean anomaly at epoch: 70.8072°
orbit number at epoch: 86745

The dashed part of the orbit path shows where the satellite is in the earth's shadow,  

DLR